Погода в Валбжихе

Польша     50°45′49″N   16°16′32″E
темп.,
°C
ветер,
м/с
пор.,
м/с
влажн.,
%
обл.,
%
осадки,
мм/ч
давл.,
гПа
погр.,
м
16 мая, вс
вс1623:00+9ю249764 1.0 1006101
02:00+8ююз239341 1.6 100560
05:00+7ююз3498100 0.0 1005174
08:00+9юз4791100 0.1 1006389
11:00+11юз577529 0.6 10061033
14:00+14юз66522 0.8 10051623
17:00+14юз56535 0.0 10051519
20:00+10ююз37821 0.0 1005311
17 мая, пн
пн1723:00+7ююз349654 0.0 100669
02:00+7ююз3395100 0.0 100663
05:00+7ююз3995100 0.0 1005270
08:00+9ююз3587100 0.1 1005366
11:00+9юз2389100 0.1 1005358
14:00+11юз1284100 1.1 1005516
17:00+10сз1293100 2.2 1006191
20:00+9з2592100 3.3 1007212
18 мая, вт
вт1823:00+7зюз2793100 0.1 1008228
02:00+5юз239733 0.1 100970
05:00+4юз349818 0.0 1010102
08:00+8юз3892100 0.0 1010519
11:00+11з477168 0.1 10101271
14:00+14з576160 0.4 10101567
17:00+10з378926 1.2 1011458
20:00+9з239112 2.1 101294
19 мая, ср
ср1923:00+5юз229517 0.0 101422
02:00+5юз2397100 0.1 101550
05:00+4ююз249855 0.0 1015102
08:00+6юз2494100 0.0 1015278
11:00+7зюз2488100 0.2 1016657
14:00+6зсз4896100 1.0 1017815
17:00+8сз478589 0.1 1016876
20:00+7з2484100 0.1 101691
20 мая, чт
чт2023:00+5зюз2394100 0.0 101755
02:00+4зюз229487 0.0 101719
05:00+3зюз229452 0.0 101719
08:00+9сз367514 0.0 1018760
11:00+11сз566642 0.6 10171374
14:00+11сз677341 1.6 10181133
17:00+12сз575761 0.4 10171820
20:00+9зсз26740 0.6 1018213